Flag for Norway Weather past 2 weeks in Spydeberg, Norway

Now
63 °F

Passing clouds.


Feels Like: 63 °F
Forecast: 58 / 70 °F
Wind: 7 mph from Southwest

Location: Rygge

Current Time: Aug 1, 2014 at 1:55:53 AM

Latest Report: Aug 1, 2014 at 1:20 AM


Visibility: N/A

Pressure: 29.74 "Hg

Humidity: 73%

Dew point: 54 °F

Location of SpydebergLocation

Historic Weather in Spydeberg — Graph

°F

Spydeberg temperature yesterday

Maximum temperature yesterday: 73 °F (at 3:20 PM)
Minimum temperature yesterday: 59 °F (at 4:20 AM)
Average temperature yesterday: 67 °F

Past Weeks' High & Low Weather Summary

 TemperatureHumidityPressure
High91 °F (Jul 23, 5:20 PM)100% (Jul 17, 2:20 AM)30.30 "Hg (Jul 17, 2:20 AM)
Low54 °F (Jul 19, 4:50 AM)26% (Jul 23, 5:50 PM)29.62 "Hg (Jul 30, 5:20 PM)
Average71 °F65%30.02 "Hg
* Reported Jul 17 12:20 AM — Aug 1 12:20 AM, Spydeberg, Weather by CustomWeather, © 2014

Note: Actual official high and low records may vary slightly from our data, if they occured in-between our weather recording intervals... More about our weather records

Advertising

Spydeberg weather history for previous 24 hours

 ConditionsComfort  
Time TempWeatherWind HumidityBarometerVisibility
12:20 AM
Aug 1
63 °FPassing clouds.7 mph77%29.71 "HgN/A
11:50 PM
Jul 31
64 °FMild.8 mph68%29.71 "HgN/A
11:20 PM64 °FMild.9 mph68%29.71 "HgN/A
10:50 PM64 °FClear.8 mph73%29.71 "Hg10 mi
10:20 PM66 °FSunny.10 mph68%29.71 "Hg10 mi
9:50 PM66 °FSunny.10 mph68%29.71 "Hg10 mi
9:20 PM68 °FSunny.9 mph64%29.68 "Hg10 mi
8:50 PM70 °FSunny.12 mph60%29.68 "Hg10 mi
8:20 PM72 °FPassing clouds.12 mph57%29.68 "HgN/A
7:50 PM72 °FPassing clouds.10 mph57%29.68 "HgN/A
7:20 PM72 °FPassing clouds.13 mph53%29.68 "HgN/A
6:50 PM72 °FSunny.14 mph57%29.68 "Hg10 mi
6:20 PM73 °FSunny.16 mph57%29.68 "Hg10 mi
5:50 PM72 °FSunny.18 mph57%29.68 "Hg10 mi
5:20 PM73 °FSunny.18 mph53%29.68 "Hg10 mi
4:50 PM73 °FBroken clouds.17 mph57%29.68 "HgN/A
4:20 PM73 °FScattered clouds.16 mph53%29.68 "HgN/A
3:20 PM73 °FScattered clouds.17 mph53%29.68 "HgN/A
2:50 PM72 °FScattered clouds.16 mph57%29.68 "HgN/A
2:20 PM72 °FSunny.16 mph57%29.68 "Hg10 mi
1:50 PM70 °FSunny.15 mph60%29.68 "Hg10 mi
1:20 PM72 °FSunny.14 mph53%29.68 "Hg10 mi
12:50 PM70 °FSunny.16 mph57%29.68 "Hg10 mi
12:20 PM70 °FSunny.16 mph60%29.68 "Hg10 mi
11:50 AM70 °FSunny.16 mph57%29.68 "Hg10 mi
11:20 AM70 °FSunny.16 mph57%29.68 "Hg10 mi
10:50 AM70 °FSunny.14 mph53%29.68 "Hg10 mi
10:20 AM70 °FPassing clouds.12 mph46%29.68 "HgN/A
9:50 AM68 °FSunny.12 mph49%29.68 "Hg10 mi
9:20 AM66 °FPassing clouds.10 mph52%29.68 "HgN/A
8:50 AM66 °FPassing clouds.7 mph56%29.68 "HgN/A
8:20 AM64 °FPassing clouds.8 mph60%29.68 "HgN/A
7:50 AM64 °FPassing clouds.9 mph64%29.68 "HgN/A
7:20 AM63 °FPassing clouds.7 mph68%29.65 "HgN/A
6:50 AM63 °FPassing clouds.6 mph68%29.65 "HgN/A
6:20 AM61 °FSunny.5 mph72%29.65 "Hg10 mi
5:50 AM61 °FCool.5 mph72%29.65 "HgN/A
5:20 AM59 °FCool.7 mph72%29.65 "HgN/A
4:50 AM59 °FCool.6 mph72%29.65 "HgN/A
4:20 AM59 °FCool.5 mph72%29.65 "HgN/A
3:50 AM61 °FCool.3 mph68%29.65 "HgN/A
3:20 AM61 °FCool.7 mph68%29.65 "HgN/A
2:50 AM63 °FMild.9 mph64%29.65 "HgN/A
2:20 AM63 °FMild.7 mph64%29.65 "HgN/A
1:50 AM64 °FMild.6 mph60%29.65 "HgN/A
1:20 AM64 °FMild.6 mph60%29.65 "HgN/A
Weather by CustomWeather, © 2014

See weather overviewHow to use our weather pages